This is the latest recevied weather packets stored in our database for station/object KD4MBW. If no packets are shown the sender has not sent any weather packets the latest 10 day(s).
| Time | Temp. | Humidity | Pressure | Rain* | Wind** | Luminosity | Snow |
|---|---|---|---|---|---|---|---|
| 1777497128 | 26.11° C | 82% | 1012.5 hPa | 0 mm | - | 359 W/m² | - |
| 1777496825 | 26.11° C | 82% | 1012.6 hPa | 0 mm | - | 243 W/m² | - |
| 1777496522 | 26.67° C | 81% | 1012.8 hPa | 0 mm | - | 433 W/m² | - |
| 1777496218 | 26.67° C | 78% | 1012.7 hPa | 0 mm | - | 269 W/m² | - |
| 1777495914 | 26.67° C | 78% | 1012.8 hPa | 0 mm | - | 513 W/m² | - |
| 1777495610 | 26.67° C | 79% | 1012.6 hPa | 0 mm | - | 530 W/m² | - |
| 1777495305 | 26.67° C | 78% | 1012.8 hPa | 0 mm | - | 345 W/m² | - |
| 1777495004 | 26.67° C | 80% | 1013.1 hPa | 0 mm | - | 525 W/m² | - |
| 1777494701 | 26.67° C | 76% | 1013.3 hPa | 0 mm | - | 561 W/m² | - |
| 1777494398 | 27.22° C | 76% | 1013.2 hPa | 0 mm | - | 580 W/m² | - |
| 1777494094 | 26.67° C | 77% | 1013 hPa | 0 mm | - | 626 W/m² | - |
| 1777493792 | 26.67° C | 79% | 1013.4 hPa | 0 mm | - | 646 W/m² | - |
| 1777493489 | 27.22° C | 76% | 1013.5 hPa | 0 mm | - | 598 W/m² | - |
| 1777493180 | 26.67° C | 76% | 1013.4 hPa | 0 mm | - | 621 W/m² | - |
| 1777492877 | 27.22° C | 75% | 1013.7 hPa | 0 mm | - | 542 W/m² | - |
| 1777492574 | 27.78° C | 75% | 1013.8 hPa | 0 mm | - | 200 W/m² | - |
| 1777492269 | 27.78° C | 75% | 1013.9 hPa | 0 mm | - | 634 W/m² | - |
| 1777491967 | 26.67° C | 75% | 1014 hPa | 0 mm | - | 693 W/m² | - |
| 1777491662 | 27.78° C | 74% | 1014 hPa | 0 mm | - | 682 W/m² | - |
| 1777491360 | 27.22° C | 74% | 1014 hPa | 0 mm | - | 524 W/m² | - |
| 1777491057 | 27.22° C | 73% | 1014.3 hPa | 0 mm | - | 185 W/m² | - |
| 1777490752 | 27.78° C | 73% | 1014.2 hPa | 0 mm | - | 249 W/m² | - |
| 1777490449 | 27.78° C | 73% | 1014.4 hPa | 0 mm | - | 693 W/m² | - |
| 1777490145 | 27.78° C | 74% | 1014.3 hPa | 0 mm | - | 708 W/m² | - |
| 1777489844 | 27.78° C | 73% | 1014.4 hPa | 0 mm | - | 731 W/m² | - |
* Rain latest hour (hover to see other rain measurements)
** Current wind speed in m/s (hover to see current wind gust speed)